Flag for Central African Republic Weather past 2 weeks in Bambari, Central African Republic

Now
91 °F

Scattered clouds.


Feels Like: 99 °F
Forecast: 74 / 99 °F
Wind: No wind

Location: Bangui Airport


UV Index: 10 (Very high)

Visibility: N/A


Pressure: 29.74 "Hg

Humidity: 52%

Dew point: 72 °F

Location of BambariLocation

Historic Weather in Bambari

°F

Bambari temperature yesterday

Maximum temperature yesterday: 90 °F (at 3:00 PM)
Minimum temperature yesterday: 72 °F (at 1:00 AM)
Average temperature yesterday: 78 °F

Past Weeks' High & Low Weather Summary

 TemperatureHumidityPressure
High97 °F (Apr 9, 1:00 PM)100% (Apr 3, 10:00 PM)30.01 "Hg (Apr 3, 10:00 PM)
Low70 °F (Apr 4, 4:00 AM)42% (Apr 9, 1:00 PM)29.71 "Hg (Apr 9, 5:00 PM)
Average79 °F81%29.85 "Hg
* Reported Apr 3 4:00 PM — Apr 18 4:00 PM, Bambari, Weather by CustomWeather, © 2014

Note: Actual official high and low records may vary slightly from our data, if they occured in-between our weather recording intervals... More about our weather records

Advertising

Historic Weather Conditions — Data for Previous 24 hours

 ConditionsComfort  
Time TempWeatherWind HumidityBarometerVisibility
4:00 PM
Apr 18
95 °FScattered clouds.3 mph44%29.74 "HgN/A
3:00 PM93 °FScattered clouds.3 mph44%29.74 "HgN/A
2:00 PM93 °FScattered clouds.2 mph47%29.77 "HgN/A
1:00 PM91 °FPartly sunny.3 mph52%29.80 "HgN/A
12:00 PM90 °FPartly sunny.2 mph55%29.86 "HgN/A
11:00 AM86 °FScattered clouds.6 mph62%29.89 "HgN/A
10:00 AM84 °FScattered clouds.13 mph66%29.95 "HgN/A
9:00 AM82 °FScattered clouds.3 mph74%29.95 "HgN/A
8:00 AM81 °FSunny.1 mph79%29.92 "Hg10 mi
7:00 AM79 °FSunny.2 mph79%29.89 "Hg10 mi
6:00 AM73 °FSunny.2 mph94%29.89 "Hg10 mi
5:00 AM73 °FClear.No wind94%29.86 "Hg10 mi
4:00 AM73 °FClear.No wind94%29.86 "Hg10 mi
3:00 AM73 °FClear.No wind100%29.83 "Hg10 mi
2:00 AM75 °FClear.No wind89%29.86 "Hg10 mi
1:00 AM75 °FClear.5 mph89%29.86 "Hg10 mi
12:00 AM75 °FClear.2 mph89%29.86 "Hg10 mi
11:00 PM
Apr 17
75 °FClear.3 mph89%29.86 "Hg10 mi
10:00 PM75 °FClear.No wind89%29.83 "Hg10 mi
9:00 PM75 °FClear.No wind89%29.80 "Hg4 mi
8:00 PM77 °FClear.3 mph83%29.77 "Hg2 mi
7:00 PM79 °FClear.1 mph84%29.74 "Hg2 mi
6:00 PM82 °FClear.1 mph74%29.74 "Hg4 mi
5:00 PM84 °FScattered clouds.No wind62%29.74 "HgN/A
Weather by CustomWeather, © 2014

See weather overview